Location: Elstree
(51.6403°N, 0.2969°W)
Time: 16:04:01
(UTC+00:00)

SJ 16-02 - Pass Details

Date: 19 June 2021
Orbit: 606 x 616 km, 75.0° (Epoch: 29 July)

Event Time Altitude Azimuth Distance (km) Brightness Sun altitude
Rises 22:53:02 0° 341° (NNW) 2,879 6.9 -13.4°
Reaches altitude 10° 22:55:28 10° 351° (N) 1,970 5.4 -13.5°
Maximum altitude 22:59:28 34° 57° (ENE) 1,015 2.6 -13.7°
Enters shadow 23:03:04 12° 120° (ESE) 1,819 3.4 -13.8°
